Lexington Weather

Lexington, Massachusetts, USA

68°F
7/3/2020 12:47pm 
  • Lexington Conditions: Overcast
  • Temperature: 67.8°F / 19.9°CColder 0.9°F than last hour.
  • Dew Point: 63.9°FDecreased 0.9°Fsince last hour.
  • Relative Humidity: 87
  • Wind: Wind from N N 1 mph, 10-min avg: 2 mph, gust: 9 mph
  • Barometer: 29.86 in Steady
  • Visibility: 10 miles
  • Rain Today: 0.00 in
  •   

Regional Weather Roundup
for Boston / Norton, MA

        
000
ASUS41 KBOX 282004
RWRBOX

REGIONAL WEATHER ROUNDUP
NATIONAL WEATHER SERVICE BOSTON/NORTON MA
400 PM EDT SUN JUN 28 2020

NOTE:  "FAIR" INDICATES FEW OR NO CLOUDS BELOW 12,000 FEET WITH NO 
SIGNIFICANT WEATHER AND/OR OBSTRUCTIONS TO VISIBILITY.

MAZALL-282100-
EASTERN MASSACHUSETTS
  
CITY           SKY/WX    TMP DP  RH WIND       PRES   REMARKS
BOSTON         CLOUDY    70  67  90 S9        29.72S                  
BEVERLY        CLOUDY    71  67  87 E7        29.72S                  
LAWRENCE       CLOUDY    74  70  87 E7        29.74S                  
BEDFORD        PTSUNNY   74  69  85 E7        29.70F                  
BLUE HILL        N/A     67  65  93 N12       29.73S                  
NORWOOD        TSTM      71  67  87 N6        29.71S FOG              
MARSHFIELD     RAIN      70  66  88 VRB6G17   29.73R                  
PLYMOUTH       MOSUNNY   82  69  64 S9        29.73R                  
TAUNTON        MOSUNNY   85  69  58 S10G18    29.71S                  
NEW BEDFORD    SUNNY     80  71  74 S12       29.73R                  
$$

MAZALL-282100-
CAPE COD AND THE ISLANDS
  
CITY           SKY/WX    TMP DP  RH WIND       PRES   REMARKS
FALMOUTH       PTSUNNY   79  70  73 S12       29.75R                  
HYANNIS        MOSUNNY   77  68  73 S10       29.75R                  
CHATHAM        SUNNY     77  66  68 VRB7      29.77S                  
PROVINCETOWN   CLOUDY    75  68  78 S12       29.76R                  
NANTUCKET      PTSUNNY   70  66  87 S5        29.76S                  
MARTHAS VNYRD  PTSUNNY   75  69  81 S12       29.75S                  
$$
 
MAZALL-282100-
CENTRAL AND WESTERN MASSACHUSETTS
  
CITY           SKY/WX    TMP DP  RH WIND       PRES   REMARKS
WORCESTER      PTSUNNY   79  66  64 W6        29.73S                  
FITCHBURG      LGT RAIN  80  65  59 NW7       29.70F                  
ORANGE         LGT RAIN  75  70  84 N5        29.72F                  
SPRINGFIELD    TSTM      74  61  64 N12G31    29.68F                  
WESTFIELD      CLOUDY    77  69  76 N14G23    29.69R                  
NORTH ADAMS    MOSUNNY   77  66  68 CALM      29.72S                  
PITTSFIELD     PTSUNNY   75  68  78 NE3       29.73S                  
$$
 
RIZALL-282100-
RHODE ISLAND
  
CITY           SKY/WX    TMP DP  RH WIND       PRES   REMARKS
PROVIDENCE     SUNNY     79  71  76 S16       29.71S                  
NEWPORT        SUNNY     77  69  76 S13       29.74R                  
BLOCK ISLAND   MOSUNNY   74  69  85 MISG        N/A                   
SMITHFIELD     MOSUNNY   80  72  76 SE8       29.71F                  
WESTERLY       SUNNY     77  68  73 S9        29.73S                  
$$
 
CTZALL-282100-
CONNECTICUT
  
CITY           SKY/WX    TMP DP  RH WIND       PRES   REMARKS
BRADLEY INTL   PTSUNNY   89  63  41 S10       29.67F HX  90           
HARTFORD       PTSUNNY   86  68  54 SW9       29.68S                  
BRIDGEPORT     PTSUNNY   76  71  85 E8        29.69F                  
DANBURY        CLOUDY    78  67  68 S8        29.71F                  
GROTON         SUNNY     76  69  79 SE9       29.71S                  
NEW HAVEN      MOSUNNY   81  71  71 E7        29.70F                  
CHESTER        FAIR      81  72  74 S8        29.72S                  
MERIDEN        LGT RAIN  81  66  61 S8        29.70S                  
WILLIMANTIC    MOSUNNY   85  68  56 S9G18     29.68F                  
OXFORD         TSTM      68  65  90 NE9G24    29.74R                  
$$

MEZ002-015-021-024-NHZ003-005-008-011-012-014-VTZ005-008-282100-
NORTHERN NEW ENGLAND
  
CITY           SKY/WX    TMP DP  RH WIND       PRES   REMARKS
PORTLAND ME    PTSUNNY   75  63  66 SE9       29.75R                  
BANGOR ME      PTSUNNY   79  62  56 S13       29.74S                  
CONCORD NH     PTSUNNY   82  62  50 CALM      29.70F                  
MANCHESTER NH  PTSUNNY   84  63  49 CALM      29.69S                  
NASHUA NH      CLOUDY    83  69  62 CALM      29.70S                  
PORTSMOUTH NH  PTSUNNY   76  64  65 SE13G21   29.71S                  
JAFFREY NH     CLOUDY    76  64  66 NW5       29.74F                  
KEENE NH       CLOUDY    79  67  66 W6        29.71F                  
BURLINGTON VT  LGT RAIN  73  68  84 SW6       29.71F                  
MT. WASHINGTON FOG       55  55 100 W12         N/A  THUNDER VSB 1/8  
$$

NYZ052-076-282100-
EASTERN NEW YORK
  
CITY           SKY/WX    TMP DP  RH WIND       PRES   REMARKS
ALBANY         CLOUDY    76  67  73 S6        29.71R                  
NEW YORK CITY  PTSUNNY   91  65  41 S15G22    29.67F HX  93           
$$
 
ANZALL-282100-
MARINE OBSERVATIONS
  
STATION/POSITION TIME  TEMP    WIND        PRES    VSBY  WAVE
                       AIR SEA DIR/SP/G                  HT/PER
                 (UTC) (F)     (DEG/KT/KT) (MB)    (MI)  (FT/S)
BOSTON BUOY      1950   69 69  160/ 16/ 19 1005.2R         2/ 7
BUZZARDS BAY     1900          170/  8/  9 1008.0F
NANTUCKET SOUND  1950   68 70  180/  6/ 10 1007.0R         1/ 6
MASS BAY-STELLWA NOT AVBL
ISLE OF SHOALS   1900   69     140/ 16/ 16 1005.8F
S OF BLOCK IS    1926      70                N/A           3/ 6
$$

......................KEY.........................
  SKY/WX - SKY CONDITION/PRESENT WEATHER
  TMP    - TEMPERATURE IN FAHRENHEIT
  DWPT   - DEWPOINT IN FAHRENHEIT
  RH     - RELATIVE HUMIDITY IN PERCENT
  WIND   - DIRECTION AND SPEED IN MPH
  PRES   - MEAN SEA LEVEL PRESSURE IN INCHES OF HG
  WCI    - WIND CHILL INDEX
  VSB    - VISIBILITY IN MILES
  HX     - HEAT INDEX
  TC     - TEMPERATURE IN CELSIUS
  VRB    - VARIABLE WIND DIRECTION
  N/A    - NOT AVAILABLE
  
      

Other recent Regional Weather Roundups

Fri Jul 3, 12:04pm

Fri Jul 3, 11:04am

Fri Jul 3, 10:04am

Fri Jul 3, 9:04am

Fri Jul 3, 8:04am

Fri Jul 3, 7:04am

Fri Jul 3, 6:04am

Fri Jul 3, 5:04am

Fri Jul 3, 4:04am

Fri Jul 3, 3:04am

Fri Jul 3, 2:04am

Fri Jul 3, 1:04am

Fri Jul 3, 12:04am

Thu Jul 2, 11:05pm

Thu Jul 2, 10:04pm

Thu Jul 2, 9:04pm

Thu Jul 2, 8:04pm

Thu Jul 2, 7:05pm

Thu Jul 2, 6:04pm

Thu Jul 2, 5:05pm

Thu Jul 2, 4:04pm

Thu Jul 2, 3:04pm

Thu Jul 2, 2:04pm

Thu Jul 2, 1:05pm

Thu Jul 2, 12:04pm

Thu Jul 2, 11:04am

Thu Jul 2, 10:05am

Thu Jul 2, 9:05am

Thu Jul 2, 8:04am

Thu Jul 2, 7:04am

Thu Jul 2, 6:05am

Thu Jul 2, 5:04am

Thu Jul 2, 4:04am

Thu Jul 2, 3:04am

Thu Jul 2, 2:04am

Thu Jul 2, 1:04am

Thu Jul 2, 12:05am

Wed Jul 1, 11:05pm

Wed Jul 1, 10:04pm

Wed Jul 1, 9:04pm

Wed Jul 1, 8:04pm

Wed Jul 1, 7:04pm

Wed Jul 1, 6:04pm

Wed Jul 1, 5:05pm

Wed Jul 1, 4:04pm

Wed Jul 1, 3:04pm

Wed Jul 1, 2:04pm

Wed Jul 1, 1:04pm

Wed Jul 1, 12:04pm

Wed Jul 1, 11:04am

Wed Jul 1, 10:04am

Wed Jul 1, 9:04am

Wed Jul 1, 8:05am

Wed Jul 1, 7:04am

Wed Jul 1, 6:04am

Wed Jul 1, 5:04am

Wed Jul 1, 4:04am

Wed Jul 1, 3:04am

Wed Jul 1, 2:04am

Wed Jul 1, 1:04am

Wed Jul 1, 12:04am

Tue Jun 30, 11:04pm

Tue Jun 30, 10:05pm

Tue Jun 30, 9:04pm

Tue Jun 30, 8:05pm

Tue Jun 30, 7:05pm

Tue Jun 30, 6:04pm

Tue Jun 30, 5:04pm

Tue Jun 30, 4:04pm

Tue Jun 30, 3:04pm

Tue Jun 30, 2:04pm

Tue Jun 30, 1:04pm

Tue Jun 30, 12:04pm

Tue Jun 30, 11:04am

Tue Jun 30, 10:04am

Tue Jun 30, 9:04am

Tue Jun 30, 8:04am

Tue Jun 30, 7:04am

Tue Jun 30, 6:04am

Tue Jun 30, 5:04am

Tue Jun 30, 4:04am

Tue Jun 30, 3:04am

Tue Jun 30, 2:04am

Tue Jun 30, 1:04am

Tue Jun 30, 12:04am

Mon Jun 29, 11:04pm

Mon Jun 29, 10:05pm

Mon Jun 29, 9:04pm

Mon Jun 29, 8:05pm

Mon Jun 29, 7:04pm

Mon Jun 29, 6:04pm

Mon Jun 29, 5:04pm

Mon Jun 29, 4:05pm

Mon Jun 29, 3:04pm

Mon Jun 29, 2:04pm

Mon Jun 29, 1:04pm

Mon Jun 29, 12:04pm

Mon Jun 29, 11:04am

Mon Jun 29, 10:04am

Mon Jun 29, 9:04am

Mon Jun 29, 8:04am

Mon Jun 29, 7:04am

Mon Jun 29, 6:04am

Mon Jun 29, 5:04am

Mon Jun 29, 4:04am

Mon Jun 29, 3:04am

Mon Jun 29, 2:04am

Mon Jun 29, 1:04am

Mon Jun 29, 12:04am

Sun Jun 28, 11:05pm

Sun Jun 28, 10:04pm

Sun Jun 28, 9:05pm

Sun Jun 28, 8:04pm

Sun Jun 28, 7:04pm

Sun Jun 28, 6:04pm

Sun Jun 28, 5:04pm

Sun Jun 28, 3:04pm

Sun Jun 28, 2:05pm

Sun Jun 28, 1:04pm

Sun Jun 28, 12:04pm

Sun Jun 28, 11:04am

Sun Jun 28, 10:04am

Sun Jun 28, 9:04am

Sun Jun 28, 8:04am

Sun Jun 28, 7:04am

Sun Jun 28, 6:04am

Sun Jun 28, 5:04am

Sun Jun 28, 4:04am

Sun Jun 28, 3:04am

Sun Jun 28, 2:05am

Sun Jun 28, 1:04am

Sun Jun 28, 12:05am

Sat Jun 27, 11:04pm

Sat Jun 27, 10:04pm

Sat Jun 27, 9:04pm

Sat Jun 27, 8:04pm

Sat Jun 27, 7:04pm

Sat Jun 27, 6:04pm

Sat Jun 27, 5:04pm

Sat Jun 27, 4:05pm

Sat Jun 27, 3:04pm

Sat Jun 27, 2:04pm

Sat Jun 27, 1:05pm

Sat Jun 27, 12:04pm

Sat Jun 27, 11:04am

Sat Jun 27, 10:04am

Sat Jun 27, 9:04am

Sat Jun 27, 8:04am

Sat Jun 27, 7:04am

Sat Jun 27, 6:04am

Sat Jun 27, 5:05am

Sat Jun 27, 4:04am

Sat Jun 27, 3:04am

Sat Jun 27, 2:04am

Sat Jun 27, 1:04am

Sat Jun 27, 12:04am

Fri Jun 26, 11:04pm

Fri Jun 26, 10:04pm

Fri Jun 26, 9:05pm

Fri Jun 26, 8:04pm

Fri Jun 26, 7:05pm

Fri Jun 26, 6:04pm

Fri Jun 26, 5:04pm

Fri Jun 26, 4:04pm

Fri Jun 26, 3:04pm

Fri Jun 26, 2:05pm

Fri Jun 26, 1:04pm

Meta data:

ID: e10c33b1-adc4-48a6-902b-04110e3b06c7
Link: https://api.weather.gov/products/e10c33b1-adc4-48a6-902b-04110e3b06c7